WXM80 ListenWXM80 Stop

You find our weather info also at:

UK Metoffice

WeatherCloud

Weather Underground

Northeastern Weather Network

AWEKAS

Citizen Weather Observer Program (CWOP)

HAMweather, WeatherForYou, PWS Weather


Weather Underground History page Text

Daily Summary for September 9, 2017 Units:  Metric    English   Both
« Previous Day
Next Day »
Daily Weekly Monthly Yearly Custom
  High: Low: Average:
Temperature: 23.4 °C 14.4 °C 17.6 °C
Dew Point: 13.6 °C 10.9 °C 12 °C
Humidity: 85 % 51 % 71 %
Wind Speed: 16.6 km/h 0 km/h 5 km/h
Wind Gust: 25.9 km/h - -
Wind:- - SSW
Pressure: 1023.6 hPa 1019.5 hPa -
Precipitation: 0 mm    
Historical Graphs
 
 
Tabular Data for September 9, 2017
Time Temperature Dew Point Pressure Wind Wind Speed Wind Gust Humidity Rainfall Rate (Hourly)
00:02 16.3 °C 12.1 °C 1019.5 hPa SSE 0.3 km/h 3.7 km/h 76 % 0 mm
00:07 16.3 °C 12.1 °C 1019.9 hPa NW 3.7 km/h 9.3 km/h 76 % 0 mm
00:12 16.2 °C 12 °C 1019.9 hPa NNW 0.2 km/h 1.9 km/h 76 % 0 mm
00:17 16.2 °C 11.9 °C 1019.9 hPa NW 1.6 km/h 5.6 km/h 76 % 0 mm
00:22 16.2 °C 11.9 °C 1019.9 hPa North 2.7 km/h 5.6 km/h 76 % 0 mm
00:27 16.1 °C 11.9 °C 1019.9 hPa NW 2.1 km/h 3.7 km/h 76 % 0 mm
00:32 16.1 °C 11.8 °C 1019.9 hPa Calm   3.2 km/h 76 % 0 mm
00:37 16.1 °C 12 °C 1020.2 hPa NW 1.6 km/h 3.7 km/h 77 % 0 mm
00:42 16 °C 12.2 °C 1020.2 hPa NNW 1 km/h 1.6 km/h 78 % 0 mm
00:47 16 °C 12.2 °C 1020.2 hPa NNE 1 km/h 6.4 km/h 78 % 0 mm
00:52 15.9 °C 12.1 °C 1020.2 hPa NNW 1.6 km/h 1.9 km/h 78 % 0 mm
00:58 15.9 °C 12.3 °C 1020.2 hPa NNE 0.2 km/h 3.7 km/h 79 % 0 mm
01:03 15.9 °C 12.2 °C 1020.2 hPa WNW 2.7 km/h 5.6 km/h 79 % 0 mm
01:08 15.8 °C 12 °C 1020.2 hPa WNW 1.8 km/h 5.6 km/h 78 % 0 mm
01:13 15.8 °C 12 °C 1020.2 hPa WNW 0.6 km/h 5.6 km/h 78 % 0 mm
01:18 15.8 °C 12.2 °C 1020.2 hPa WNW 1.4 km/h 5.6 km/h 79 % 0 mm
01:23 15.7 °C 12.1 °C 1019.9 hPa WNW 0.2 km/h 3.7 km/h 79 % 0 mm
01:28 15.7 °C 12.1 °C 1019.9 hPa WNW 0.2 km/h 1.9 km/h 79 % 0 mm
01:33 15.6 °C 12 °C 1020.2 hPa WNW 1.4 km/h 5.6 km/h 79 % 0 mm
01:38 15.6 °C 12.1 °C 1020.2 hPa NNW 1 km/h 5.6 km/h 80 % 0 mm
01:43 15.5 °C 12.3 °C 1019.9 hPa Calm     81 % 0 mm
01:48 15.4 °C 12.2 °C 1019.9 hPa WNW 0.8 km/h 3.7 km/h 81 % 0 mm
01:53 15.3 °C 12.1 °C 1020.2 hPa Calm   1.9 km/h 81 % 0 mm
01:58 15.3 °C 12.2 °C 1020.2 hPa Calm     82 % 0 mm
01:59 15.3 °C 12.2 °C 1020.2 hPa Calm     82 % 0 mm
02:04 15.2 °C 12.2 °C 1020.2 hPa WNW 2.4 km/h 3.7 km/h 82 % 0 mm
02:09 15.2 °C 12.1 °C 1020.2 hPa WNW 1.8 km/h 5.6 km/h 82 % 0 mm
02:14 15.1 °C 12.1 °C 1020.2 hPa WNW 0.2 km/h 1.6 km/h 82 % 0 mm
02:19 15.1 °C 12.2 °C 1020.2 hPa WNW 2.1 km/h 5.6 km/h 83 % 0 mm
02:24 15 °C 12.1 °C 1020.2 hPa WNW 1.1 km/h 3.7 km/h 83 % 0 mm
02:29 14.9 °C 12.3 °C 1020.2 hPa WNW 1 km/h 5.6 km/h 84 % 0 mm
02:34 14.8 °C 12.2 °C 1020.2 hPa WNW 0.8 km/h 3.7 km/h 84 % 0 mm
02:39 14.8 °C 12.2 °C 1020.2 hPa WNW 2.1 km/h 4.8 km/h 84 % 0 mm
02:44 14.8 °C 12.1 °C 1020.2 hPa NNW 0.5 km/h 5.6 km/h 84 % 0 mm
02:49 14.7 °C 12.2 °C 1020.2 hPa Calm   3.7 km/h 85 % 0 mm
02:54 14.7 °C 12 °C 1020.5 hPa NNW 1.1 km/h 3.2 km/h 84 % 0 mm
02:59 14.6 °C 12.1 °C 1020.2 hPa NW 0.2 km/h 5.6 km/h 85 % 0 mm
03:04 14.6 °C 12.1 °C 1020.5 hPa NW 0.5 km/h 1.9 km/h 85 % 0 mm
03:09 14.6 °C 12.1 °C 1020.2 hPa NW 0.8 km/h 3.2 km/h 85 % 0 mm
03:14 14.6 °C 12.1 °C 1020.2 hPa NNW 1.6 km/h 5.6 km/h 85 % 0 mm
03:19 14.6 °C 12.1 °C 1020.2 hPa Calm   1.9 km/h 85 % 0 mm
03:24 14.5 °C 11.8 °C 1020.2 hPa Calm   1.9 km/h 84 % 0 mm
03:29 14.5 °C 12 °C 1020.2 hPa Calm   3.7 km/h 85 % 0 mm
03:34 14.5 °C 12 °C 1020.2 hPa NW 0.2 km/h 3.7 km/h 85 % 0 mm
03:39 14.5 °C 12 °C 1020.5 hPa NNE 0.6 km/h 5.6 km/h 85 % 0 mm
03:44 14.5 °C 12 °C 1020.5 hPa NW 0.5 km/h 5.6 km/h 85 % 0 mm
03:49 14.5 °C 12 °C 1020.2 hPa North 1.1 km/h 4.8 km/h 85 % 0 mm
03:54 14.4 °C 11.9 °C 1020.5 hPa North 1.6 km/h 8 km/h 85 % 0 mm
03:59 14.4 °C 11.9 °C 1020.5 hPa NNE 1.3 km/h 4.8 km/h 85 % 0 mm
04:04 14.4 °C 11.9 °C 1020.5 hPa NNW 1.6 km/h 7.4 km/h 85 % 0 mm
04:05 14.4 °C 11.9 °C 1020.5 hPa NNW 0.5 km/h 5.6 km/h 85 % 0 mm
04:10 14.4 °C 11.9 °C 1020.5 hPa North 2.3 km/h 3.7 km/h 85 % 0 mm
04:15 14.4 °C 11.9 °C 1020.5 hPa NNW 1.8 km/h 5.6 km/h 85 % 0 mm
04:20 14.4 °C 11.9 °C 1020.5 hPa NE 2.4 km/h 9.3 km/h 85 % 0 mm
04:26 14.4 °C 11.9 °C 1020.9 hPa NNE 3.7 km/h 13 km/h 85 % 0 mm
04:29 14.5 °C 11.8 °C 1020.5 hPa North 6.1 km/h 9.3 km/h 84 % 0 mm
04:34 14.5 °C 11.7 °C 1020.5 hPa NNW 0.2 km/h 11.1 km/h 83 % 0 mm
04:39 14.5 °C 11.8 °C 1020.5 hPa North 2.7 km/h 5.6 km/h 84 % 0 mm
04:44 14.5 °C 11.7 °C 1020.5 hPa North 6.6 km/h 8 km/h 83 % 0 mm
04:49 14.6 °C 11.7 °C 1020.9 hPa NNE 5.1 km/h 8 km/h 83 % 0 mm
04:54 14.6 °C 11.5 °C 1020.9 hPa North 0.2 km/h 3.7 km/h 82 % 0 mm
04:59 14.6 °C 11.5 °C 1020.9 hPa NNW 4.5 km/h 11.1 km/h 82 % 0 mm
05:04 14.6 °C 11.6 °C 1020.9 hPa North 5.1 km/h 9.3 km/h 82 % 0 mm
05:09 14.6 °C 11.4 °C 1020.9 hPa NNE 1.9 km/h 13 km/h 81 % 0 mm
05:14 14.6 °C 11.4 °C 1020.9 hPa North 8.5 km/h 14.8 km/h 81 % 0 mm
05:20 14.6 °C 11.4 °C 1020.9 hPa WNW 5.6 km/h 11.1 km/h 81 % 0 mm
05:25 14.6 °C 11.4 °C 1020.9 hPa ENE 5.3 km/h 13 km/h 81 % 0 mm
05:30 14.6 °C 11.4 °C 1020.9 hPa NNE 5.3 km/h 12.9 km/h 81 % 0 mm
05:35 14.7 °C 11.4 °C 1020.9 hPa NNW 4.7 km/h 13 km/h 81 % 0 mm
05:40 14.7 °C 11.4 °C 1020.9 hPa NNW 6.6 km/h 13 km/h 81 % 0 mm
05:45 14.7 °C 11.4 °C 1021.2 hPa NW 3.9 km/h 9.7 km/h 81 % 0 mm
05:50 14.7 °C 11.4 °C 1021.2 hPa North 5.8 km/h 9.3 km/h 81 % 0 mm
05:55 14.7 °C 11.3 °C 1021.2 hPa West 8.7 km/h 11.3 km/h 80 % 0 mm
06:00 14.6 °C 11.2 °C 1021.2 hPa North 8.4 km/h 16.7 km/h 80 % 0 mm
06:05 14.6 °C 11.2 °C 1021.2 hPa NW 6.9 km/h 16.7 km/h 80 % 0 mm
06:10 14.6 °C 11.2 °C 1021.2 hPa North 8.4 km/h 18.5 km/h 80 % 0 mm
06:15 14.6 °C 11.2 °C 1021.2 hPa NW 6.1 km/h 16.7 km/h 80 % 0 mm
06:21 14.6 °C 11.2 °C 1021.6 hPa North 9.7 km/h 16.1 km/h 80 % 0 mm
06:26 14.6 °C 11.1 °C 1021.6 hPa North 8 km/h 20.9 km/h 80 % 0 mm
06:31 14.5 °C 11.3 °C 1021.6 hPa North 9.7 km/h 16.1 km/h 81 % 0 mm
06:36 14.5 °C 11.1 °C 1021.6 hPa North 8 km/h 14.5 km/h 80 % 0 mm
06:41 14.5 °C 11.3 °C 1021.6 hPa North 8 km/h 14.5 km/h 81 % 0 mm
06:46 14.4 °C 11.2 °C 1021.9 hPa NNW 8 km/h 14.5 km/h 81 % 0 mm
06:51 14.4 °C 11.2 °C 1021.9 hPa North 3.2 km/h 12.9 km/h 81 % 0 mm
06:56 14.4 °C 11.2 °C 1021.9 hPa NNE 8 km/h 12.9 km/h 81 % 0 mm
07:01 14.4 °C 11 °C 1021.9 hPa North 6.8 km/h 14.8 km/h 80 % 0 mm
07:06 14.4 °C 11 °C 1021.9 hPa NNW 9.5 km/h 16.7 km/h 80 % 0 mm
07:11 14.4 °C 11.2 °C 1021.9 hPa NNW 4.8 km/h 7.4 km/h 81 % 0 mm
07:16 14.4 °C 11.2 °C 1021.9 hPa NNE 10.1 km/h 16.7 km/h 81 % 0 mm
07:21 14.4 °C 11.2 °C 1022.2 hPa NNW 7.4 km/h 13 km/h 81 % 0 mm
07:26 14.4 °C 11.4 °C 1022.2 hPa North 4.7 km/h 11.1 km/h 82 % 0 mm
07:31 14.4 °C 11.4 °C 1021.9 hPa North 8.7 km/h 14.8 km/h 82 % 0 mm
07:36 14.4 °C 11.2 °C 1022.2 hPa North 1.8 km/h 9.3 km/h 81 % 0 mm
07:41 14.4 °C 11.4 °C 1022.2 hPa North 7.2 km/h 14.8 km/h 82 % 0 mm
07:46 14.4 °C 11.2 °C 1022.2 hPa North 5.5 km/h 5.6 km/h 81 % 0 mm
07:51 14.5 °C 11.4 °C 1022.2 hPa North 6.6 km/h 14.5 km/h 82 % 0 mm
07:56 14.6 °C 11.4 °C 1022.2 hPa NW 6.8 km/h 14.8 km/h 81 % 0 mm
08:01 14.7 °C 11.4 °C 1022.2 hPa North 11.7 km/h 13 km/h 81 % 0 mm
08:07 14.7 °C 11.5 °C 1022.2 hPa NNE 6.1 km/h 14.8 km/h 81 % 0 mm
08:12 14.8 °C 11.6 °C 1022.2 hPa North 7.9 km/h 9.3 km/h 81 % 0 mm
08:17 14.8 °C 11.6 °C 1022.2 hPa NNE 9.2 km/h 18.5 km/h 81 % 0 mm
08:22 14.8 °C 11.4 °C 1022.2 hPa NNE 9.3 km/h 16.7 km/h 80 % 0 mm
08:27 14.9 °C 11.5 °C 1022.2 hPa NE 9 km/h 16.7 km/h 80 % 0 mm
08:32 14.9 °C 11.5 °C 1022.2 hPa NE 4.5 km/h 8 km/h 80 % 0 mm
08:37 15 °C 11.6 °C 1022.6 hPa North 10.1 km/h 14.8 km/h 80 % 0 mm
08:42 15.1 °C 11.6 °C 1022.6 hPa NNE 4 km/h 9.3 km/h 80 % 0 mm
08:47 15.2 °C 11.7 °C 1022.6 hPa NE 3.1 km/h 9.3 km/h 80 % 0 mm
08:52 15.2 °C 11.8 °C 1022.6 hPa ENE 6.4 km/h 6.4 km/h 80 % 0 mm
08:57 15.3 °C 11.7 °C 1022.6 hPa North 5.5 km/h 11.1 km/h 79 % 0 mm
09:03 15.4 °C 11.8 °C 1022.6 hPa NNW 9 km/h 13 km/h 79 % 0 mm
09:08 15.4 °C 11.6 °C 1022.6 hPa NNW 6.9 km/h 18.5 km/h 78 % 0 mm
09:13 15.4 °C 11.4 °C 1022.6 hPa NNE 6.8 km/h 14.8 km/h 77 % 0 mm
09:18 15.5 °C 11.7 °C 1022.9 hPa WNW 4.8 km/h 11.3 km/h 78 % 0 mm
09:23 15.6 °C 11.7 °C 1022.9 hPa NNW 7.7 km/h 9.3 km/h 78 % 0 mm
09:28 15.6 °C 11.6 °C 1022.9 hPa NNW 3.9 km/h 7.4 km/h 77 % 0 mm
09:33 15.7 °C 11.7 °C 1022.9 hPa NNE 3.4 km/h 5.6 km/h 77 % 0 mm
09:38 15.8 °C 11.6 °C 1023.2 hPa NNE 4.7 km/h 9.3 km/h 76 % 0 mm
09:43 15.9 °C 11.8 °C 1023.2 hPa NNE 2.3 km/h 7.4 km/h 77 % 0 mm
09:48 16.1 °C 11.9 °C 1023.2 hPa NW 3.5 km/h 6.4 km/h 76 % 0 mm
09:53 16.4 °C 12.4 °C 1023.2 hPa NNE 0.3 km/h 1.9 km/h 77 % 0 mm
09:58 16.7 °C 11.8 °C 1023.2 hPa NNW 2.9 km/h 5.6 km/h 73 % 0 mm
10:03 16.8 °C 11.8 °C 1023.2 hPa NW 6 km/h 9.3 km/h 72 % 0 mm
10:08 17 °C 11.7 °C 1023.2 hPa North 6.9 km/h 11.1 km/h 71 % 0 mm
10:13 17.1 °C 11.8 °C 1023.2 hPa NNW 1.8 km/h 7.4 km/h 71 % 0 mm
10:18 17.2 °C 12.1 °C 1023.2 hPa NNE 6.9 km/h 13 km/h 72 % 0 mm
10:23 17.2 °C 11.7 °C 1022.9 hPa NNE 8.2 km/h 13 km/h 70 % 0 mm
10:28 17.2 °C 11.7 °C 1023.2 hPa NNE 8.9 km/h 14.5 km/h 70 % 0 mm
10:33 17.3 °C 11.9 °C 1023.2 hPa ENE 3.5 km/h 9.3 km/h 71 % 0 mm
10:38 17.3 °C 11.8 °C 1023.2 hPa NNE 8.2 km/h 9.7 km/h 70 % 0 mm
10:43 17.4 °C 12.1 °C 1022.9 hPa NNW 4.3 km/h 8 km/h 71 % 0 mm
10:48 17.5 °C 11.7 °C 1023.2 hPa North 3.4 km/h 8 km/h 69 % 0 mm
10:59 17.9 °C 12.3 °C 1022.9 hPa North 3.9 km/h 3.9 km/h 70 % 0 mm
11:04 18.2 °C 12.2 °C 1022.9 hPa NNW 6.3 km/h 12.9 km/h 68 % 0 mm
11:09 18.5 °C 12.3 °C 1022.9 hPa North 7.4 km/h 13 km/h 67 % 0 mm
11:14 18.9 °C 12.2 °C 1022.9 hPa NNE 5.3 km/h 14.8 km/h 65 % 0 mm
11:19 19.4 °C 12.4 °C 1022.9 hPa NNE 8.7 km/h 11.3 km/h 64 % 0 mm
11:24 19.9 °C 12.9 °C 1022.9 hPa NNW 3.9 km/h 9.3 km/h 64 % 0 mm
11:29 20.4 °C 12.4 °C 1022.9 hPa NNE 6.9 km/h 14.5 km/h 60 % 0 mm
11:34 20.8 °C 12.7 °C 1022.9 hPa NE 5.6 km/h 13 km/h 60 % 0 mm
11:39 21.2 °C 12.3 °C 1022.6 hPa NNE 6.4 km/h 9.7 km/h 57 % 0 mm
11:44 21.6 °C 12.9 °C 1022.9 hPa North 5 km/h 11.1 km/h 58 % 0 mm
11:49 21.8 °C 13.2 °C 1022.9 hPa North 6.3 km/h 13 km/h 58 % 0 mm
11:54 22.1 °C 12.7 °C 1022.9 hPa NW 3.9 km/h 7.4 km/h 55 % 0 mm
11:59 22.1 °C 12.7 °C 1022.9 hPa NNW 3.4 km/h 9.3 km/h 55 % 0 mm
12:04 22.2 °C 13 °C 1022.9 hPa NNW 3.2 km/h 7.4 km/h 56 % 0 mm
12:10 22.5 °C 13.6 °C 1022.9 hPa NNE 5.3 km/h 9.3 km/h 57 % 0 mm
12:15 22.6 °C 12.3 °C 1022.9 hPa NNW 4.5 km/h 9.7 km/h 52 % 0 mm
12:20 22.8 °C 13.3 °C 1022.9 hPa North 1.3 km/h 8 km/h 55 % 0 mm
12:23 22.8 °C 13.1 °C 1022.9 hPa NNE 11.3 km/h 14.8 km/h 54 % 0 mm
12:28 22.8 °C 12.4 °C 1022.9 hPa NNE 8.9 km/h 13 km/h 52 % 0 mm
12:33 22.7 °C 13.5 °C 1022.9 hPa NNE 5.3 km/h 11.1 km/h 56 % 0 mm
12:38 22.8 °C 13.3 °C 1022.9 hPa NW 6.1 km/h 11.1 km/h 55 % 0 mm
12:43 22.9 °C 12.8 °C 1022.6 hPa NNW 5.3 km/h 11.1 km/h 53 % 0 mm
12:48 23 °C 12.9 °C 1022.9 hPa North 2.1 km/h 5.6 km/h 53 % 0 mm
12:53 23 °C 12.9 °C 1022.6 hPa NNE 8.2 km/h 11.3 km/h 53 % 0 mm
12:58 23.2 °C 13.3 °C 1022.9 hPa North 7.2 km/h 13 km/h 54 % 0 mm
13:03 23.3 °C 12.9 °C 1022.9 hPa North 6.8 km/h 11.1 km/h 52 % 0 mm
13:08 23.3 °C 12.9 °C 1022.9 hPa North 3.4 km/h 5.6 km/h 52 % 0 mm
13:13 23.4 °C 12.9 °C 1022.9 hPa NW 5.6 km/h 13 km/h 52 % 0 mm
13:18 23.3 °C 12.9 °C 1022.9 hPa NNW 3.9 km/h 9.3 km/h 52 % 0 mm
13:23 23.1 °C 12.7 °C 1022.9 hPa North 5 km/h 7.4 km/h 52 % 0 mm
13:28 23 °C 13.2 °C 1022.9 hPa NW 0.8 km/h 3.7 km/h 54 % 0 mm
13:33 22.8 °C 13.3 °C 1022.9 hPa North 4.8 km/h 7.4 km/h 55 % 0 mm
13:38 23.1 °C 13.5 °C 1022.6 hPa West 2.4 km/h 7.4 km/h 55 % 0 mm
13:43 22.9 °C 12.8 °C 1022.9 hPa North 3.9 km/h 5.6 km/h 53 % 0 mm
13:48 22.8 °C 13.6 °C 1022.6 hPa NW 4.3 km/h 7.4 km/h 56 % 0 mm
13:53 22.8 °C 13.1 °C 1022.6 hPa WNW 3.2 km/h 6.4 km/h 54 % 0 mm
13:58 22.9 °C 13.4 °C 1022.6 hPa NNW 7.1 km/h 11.1 km/h 55 % 0 mm
14:03 23 °C 12.6 °C 1022.6 hPa WNW 7.2 km/h 14.5 km/h 52 % 0 mm
14:08 23 °C 13.4 °C 1022.6 hPa NNE 3.2 km/h 7.4 km/h 55 % 0 mm
14:13 23.1 °C 13.6 °C 1022.6 hPa WNW 2.1 km/h 11.3 km/h 55 % 0 mm
14:18 23.2 °C 13.1 °C 1022.6 hPa WNW 7.4 km/h 9.3 km/h 53 % 0 mm
14:23 23.2 °C 13.4 °C 1022.2 hPa NW 7.9 km/h 11.1 km/h 54 % 0 mm
14:28 23.2 °C 12.5 °C 1022.2 hPa WNW 6.8 km/h 18.5 km/h 51 % 0 mm
14:33 23.3 °C 13.4 °C 1022.2 hPa WNW 3.4 km/h 9.3 km/h 54 % 0 mm
14:38 23.3 °C 12.6 °C 1022.2 hPa NNW 6.1 km/h 14.8 km/h 51 % 0 mm
14:43 23.3 °C 13.5 °C 1022.2 hPa North 5.6 km/h 9.7 km/h 54 % 0 mm
14:48 23.4 °C 13.6 °C 1022.2 hPa NW 6 km/h 7.4 km/h 54 % 0 mm
14:53 23.3 °C 13.5 °C 1022.2 hPa WNW 9 km/h 18.5 km/h 54 % 0 mm
14:59 23.3 °C 12.9 °C 1021.9 hPa WNW 2.6 km/h 7.4 km/h 52 % 0 mm
15:04 23.1 °C 12.4 °C 1021.9 hPa NNW 3.2 km/h 9.3 km/h 51 % 0 mm
15:14 22.9 °C 13.1 °C 1022.2 hPa North 6.1 km/h 11.1 km/h 54 % 0 mm
15:19 22.9 °C 12.5 °C 1022.2 hPa NNW 2.3 km/h 5.6 km/h 52 % 0 mm
15:24 22.7 °C 12.6 °C 1022.2 hPa North 3.5 km/h 11.1 km/h 53 % 0 mm
15:29 22.2 °C 12.2 °C 1022.2 hPa North 3.5 km/h 11.1 km/h 53 % 0 mm
15:34 21.8 °C 11.8 °C 1022.2 hPa NE 6.3 km/h 11.1 km/h 53 % 0 mm
15:39 21.3 °C 11.9 °C 1021.9 hPa NNE 6.6 km/h 11.1 km/h 55 % 0 mm
15:44 21.1 °C 12.2 °C 1022.2 hPa NE 5.6 km/h 9.7 km/h 57 % 0 mm
15:49 20.9 °C 11.8 °C 1021.9 hPa NE 6.6 km/h 12.9 km/h 56 % 0 mm
15:54 21 °C 12.2 °C 1021.9 hPa NE 7.9 km/h 14.8 km/h 57 % 0 mm
15:59 20.9 °C 11.6 °C 1021.9 hPa NNW 8.4 km/h 13 km/h 55 % 0 mm
16:04 20.9 °C 12.1 °C 1021.9 hPa NNE 6.8 km/h 8 km/h 57 % 0 mm
16:10 20.8 °C 12.3 °C 1022.2 hPa NNW 1.9 km/h 5.6 km/h 58 % 0 mm
16:15 20.8 °C 11.4 °C 1021.9 hPa WSW 6.6 km/h 18.5 km/h 55 % 0 mm
16:20 20.8 °C 11.7 °C 1021.9 hPa NNE 5.5 km/h 11.3 km/h 56 % 0 mm
16:25 20.8 °C 11.9 °C 1021.9 hPa North 5 km/h 9.3 km/h 57 % 0 mm
16:30 20.8 °C 12.3 °C 1021.9 hPa North 2.7 km/h 13 km/h 58 % 0 mm
16:35 20.8 °C 11.7 °C 1021.9 hPa NW 4.2 km/h 9.3 km/h 56 % 0 mm
16:40 20.9 °C 11.5 °C 1021.9 hPa NNW 1.4 km/h 9.3 km/h 55 % 0 mm
16:45 20.8 °C 11.9 °C 1021.9 hPa WNW 9.2 km/h 13 km/h 57 % 0 mm
16:50 20.8 °C 12.2 °C 1021.9 hPa NNW 5.6 km/h 14.8 km/h 58 % 0 mm
16:55 20.8 °C 11.4 °C 1021.9 hPa NNE 4.3 km/h 7.4 km/h 55 % 0 mm
17:00 20.8 °C 11.7 °C 1022.2 hPa West 1.4 km/h 5.6 km/h 56 % 0 mm
17:05 20.7 °C 11.1 °C 1022.2 hPa NNE 8 km/h 13 km/h 54 % 0 mm
17:10 20.5 °C 11.9 °C 1022.2 hPa North 5.3 km/h 14.5 km/h 58 % 0 mm
17:16 20.5 °C 11.7 °C 1022.2 hPa North 4.8 km/h 12.9 km/h 57 % 0 mm
17:21 20.3 °C 11.2 °C 1022.2 hPa NNW 1.6 km/h 14.5 km/h 56 % 0 mm
17:26 20.2 °C 11.4 °C 1022.2 hPa NNW 4.8 km/h 16.1 km/h 57 % 0 mm
17:31 19.9 °C 11.4 °C 1022.2 hPa NNE 5 km/h 12.9 km/h 58 % 0 mm
17:35 19.7 °C 11.5 °C 1022.2 hPa North 3.2 km/h 16.1 km/h 59 % 0 mm
17:41 19.6 °C 11.4 °C 1022.2 hPa NNW 3.2 km/h 16.1 km/h 59 % 0 mm
17:45 19.4 °C 11.2 °C 1022.2 hPa NNW 4.8 km/h 12.9 km/h 59 % 0 mm
17:51 19.3 °C 11.3 °C 1022.2 hPa NW 6.4 km/h 12.9 km/h 60 % 0 mm
17:56 19.2 °C 10.9 °C 1022.2 hPa NW 3.2 km/h 19.3 km/h 59 % 0 mm
18:01 19.1 °C 11.1 °C 1022.2 hPa North 4 km/h 13 km/h 60 % 0 mm
18:06 18.9 °C 11 °C 1022.2 hPa NW 6.6 km/h 13 km/h 60 % 0 mm
18:11 18.8 °C 10.9 °C 1022.2 hPa WNW 0.8 km/h 5.6 km/h 60 % 0 mm
18:16 18.8 °C 11.1 °C 1022.2 hPa WNW 6 km/h 14.8 km/h 61 % 0 mm
18:21 18.7 °C 11 °C 1022.2 hPa NNW 3.4 km/h 5.6 km/h 61 % 0 mm
18:26 18.6 °C 11.2 °C 1022.2 hPa North 3.9 km/h 7.4 km/h 62 % 0 mm
18:31 18.5 °C 11.1 °C 1022.2 hPa North 1.4 km/h 5.6 km/h 62 % 0 mm
18:36 18.4 °C 11 °C 1022.2 hPa WNW 3.5 km/h 13 km/h 62 % 0 mm
18:41 18.3 °C 11.2 °C 1022.2 hPa SSE 1.3 km/h 7.4 km/h 63 % 0 mm
18:46 18.2 °C 11.3 °C 1022.2 hPa North 2.7 km/h 9.3 km/h 64 % 0 mm
18:51 18.1 °C 11.2 °C 1022.2 hPa WNW 1.9 km/h 7.4 km/h 64 % 0 mm
18:56 18.1 °C 11.4 °C 1022.6 hPa NW 2.1 km/h 5.6 km/h 65 % 0 mm
19:01 17.9 °C 11.1 °C 1022.2 hPa NNW 5.8 km/h 11.1 km/h 64 % 0 mm
19:07 17.8 °C 11.2 °C 1022.6 hPa NW 5.3 km/h 9.3 km/h 65 % 0 mm
19:12 17.8 °C 11.1 °C 1022.6 hPa NNE 3.2 km/h 9.3 km/h 65 % 0 mm
19:17 17.7 °C 11.3 °C 1022.6 hPa NW 2.4 km/h 9.7 km/h 66 % 0 mm
19:22 17.6 °C 11.2 °C 1022.6 hPa NNW 3.7 km/h 13 km/h 66 % 0 mm
19:27 17.6 °C 11.1 °C 1022.6 hPa North 2.6 km/h 5.6 km/h 66 % 0 mm
19:32 17.5 °C 11.3 °C 1022.6 hPa North 2.7 km/h 7.4 km/h 67 % 0 mm
19:37 17.4 °C 11.2 °C 1022.6 hPa North 5.1 km/h 11.3 km/h 67 % 0 mm
19:42 17.4 °C 11.2 °C 1022.6 hPa NNW 1.8 km/h 8 km/h 67 % 0 mm
19:47 17.4 °C 11.4 °C 1022.9 hPa West 4.5 km/h 13 km/h 68 % 0 mm
19:52 17.3 °C 11.4 °C 1022.9 hPa West 2.9 km/h 9.3 km/h 68 % 0 mm
19:57 17.3 °C 11.4 °C 1022.9 hPa NNE 2.7 km/h 7.4 km/h 68 % 0 mm
20:02 17.3 °C 11.4 °C 1022.9 hPa WNW 2.9 km/h 9.3 km/h 68 % 0 mm
20:07 17.3 °C 11.6 °C 1022.9 hPa NW 4.2 km/h 11.1 km/h 69 % 0 mm
20:12 17.3 °C 11.3 °C 1022.9 hPa NW 1 km/h 9.3 km/h 68 % 0 mm
20:17 17.3 °C 11.6 °C 1023.2 hPa North 1 km/h 7.4 km/h 69 % 0 mm
20:22 17.3 °C 11.6 °C 1023.2 hPa NNW 4 km/h 11.3 km/h 69 % 0 mm
20:27 17.3 °C 11.8 °C 1023.2 hPa NNW 8 km/h 11.1 km/h 70 % 0 mm
20:32 17.3 °C 11.8 °C 1023.2 hPa North 1.6 km/h 6.4 km/h 70 % 0 mm
20:37 17.3 °C 11.8 °C 1023.2 hPa North 2.4 km/h 7.4 km/h 70 % 0 mm
20:42 17.3 °C 11.8 °C 1023.2 hPa North 3.5 km/h 6.4 km/h 70 % 0 mm
20:47 17.3 °C 11.9 °C 1023.2 hPa North 1.4 km/h 5.6 km/h 71 % 0 mm
20:52 17.2 °C 12.1 °C 1023.2 hPa WNW 3.5 km/h 5.6 km/h 72 % 0 mm
20:57 17.2 °C 12.1 °C 1023.2 hPa North 6.6 km/h 11.1 km/h 72 % 0 mm
21:03 17.2 °C 12.1 °C 1023.2 hPa NW 5.3 km/h 11.1 km/h 72 % 0 mm
21:08 17.2 °C 12.1 °C 1023.2 hPa North 3.9 km/h 13 km/h 72 % 0 mm
21:13 17.2 °C 12.3 °C 1023.2 hPa NNW 4.3 km/h 14.8 km/h 73 % 0 mm
21:18 17.1 °C 12.2 °C 1023.2 hPa West 5.5 km/h 8 km/h 73 % 0 mm
21:23 17.1 °C 12.2 °C 1023.2 hPa NW 6.9 km/h 14.8 km/h 73 % 0 mm
21:28 17.1 °C 12 °C 1023.2 hPa NNE 8.4 km/h 14.5 km/h 72 % 0 mm
21:33 17.1 °C 12.2 °C 1023.2 hPa NNE 9 km/h 14.8 km/h 73 % 0 mm
21:38 17.1 °C 12.2 °C 1023.2 hPa NE 7.1 km/h 11.1 km/h 73 % 0 mm
21:41 17.2 °C 12.3 °C 1023.2 hPa North 5.6 km/h 16.7 km/h 73 % 0 mm
21:46 17.2 °C 12.3 °C 1023.2 hPa North 12.2 km/h 19.3 km/h 73 % 0 mm
21:51 17.2 °C 12.3 °C 1023.2 hPa WNW 7.6 km/h 14.5 km/h 73 % 0 mm
21:56 17.2 °C 12.3 °C 1023.2 hPa NNW 13 km/h 20.4 km/h 73 % 0 mm
22:01 17.2 °C 12.6 °C 1023.2 hPa NNE 10.6 km/h 13 km/h 74 % 0 mm
22:07 17.3 °C 12.6 °C 1023.2 hPa North 14.2 km/h 22.2 km/h 74 % 0 mm
22:12 17.3 °C 12.6 °C 1023.2 hPa NNE 11.7 km/h 20.4 km/h 74 % 0 mm
22:17 17.3 °C 12.6 °C 1023.6 hPa NNW 13.7 km/h 22.5 km/h 74 % 0 mm
22:22 17.3 °C 12.6 °C 1023.6 hPa NNW 6.9 km/h 18.5 km/h 74 % 0 mm
22:27 17.2 °C 12.6 °C 1023.6 hPa North 14.5 km/h 20.4 km/h 74 % 0 mm
22:32 17.2 °C 12.5 °C 1023.6 hPa NNW 16.6 km/h 24.1 km/h 74 % 0 mm
22:37 17.2 °C 12.7 °C 1023.6 hPa North 13.7 km/h 20.9 km/h 75 % 0 mm
22:42 17.2 °C 12.7 °C 1023.6 hPa NW 12.2 km/h 20.4 km/h 75 % 0 mm
22:47 17.1 °C 12.7 °C 1023.6 hPa North 11.6 km/h 18.5 km/h 75 % 0 mm
22:52 17.1 °C 12.7 °C 1023.6 hPa NNE 9.5 km/h 18.5 km/h 75 % 0 mm
22:57 17.1 °C 12.8 °C 1023.6 hPa NNE 8.5 km/h 14.8 km/h 76 % 0 mm
23:02 17 °C 12.7 °C 1023.6 hPa North 16.4 km/h 24.1 km/h 76 % 0 mm
23:07 16.9 °C 12.9 °C 1023.6 hPa NNE 11.4 km/h 18.5 km/h 77 % 0 mm
23:12 16.9 °C 12.8 °C 1023.6 hPa NNE 13.7 km/h 19.3 km/h 77 % 0 mm
23:17 16.8 °C 12.8 °C 1023.6 hPa NE 14 km/h 25.9 km/h 77 % 0 mm
23:22 16.8 °C 12.7 °C 1023.6 hPa NNW 11.1 km/h 18.5 km/h 77 % 0 mm
23:27 16.8 °C 12.9 °C 1023.6 hPa North 8.7 km/h 18.5 km/h 78 % 0 mm
23:32 16.7 °C 12.9 °C 1023.6 hPa NNE 10.5 km/h 14.5 km/h 78 % 0 mm
23:38 16.7 °C 12.8 °C 1023.6 hPa NNE 7.2 km/h 18.5 km/h 78 % 0 mm
23:43 16.7 °C 12.8 °C 1023.6 hPa NNE 12.1 km/h 18.5 km/h 78 % 0 mm
23:48 16.7 °C 12.8 °C 1023.6 hPa North 12.1 km/h 20.4 km/h 78 % 0 mm
23:53 16.7 °C 13 °C 1023.6 hPa NNE 9.2 km/h 13 km/h 79 % 0 mm
23:58 16.7 °C 12.8 °C 1023.6 hPa North 11.3 km/h 16.7 km/h 78 % 0 mm
Crab Meadow Weather
Compliments of Weather Underground - 3 mb

Script developed by  Jim McMurry - jmcmurry@mwt.net Adapted for the template by  Wim van der Kuil - Leuven-Template.eu

Extremes: Alaska and Hawaii have the same heat record. In Pahala, Hawaii the temperature on April 27, 1931 was 100 degrees F. Alaska's state heat record is also 100 degrees F. on June 27, 1915 at Fort Yukon.